User: anonymous
Location: Lawrence
(38.9720°N, 95.2350°W)
Time: 03:46:15
(UTC-05:00)
Language:

ALOS - Orbit

View from above orbital plane
View from above orbital plane
View from above satellite
View from above satellite

Ground track
Ground track

The orbit data is extracted from the following two-line orbital elements,

1 28931U 06002A   14231.47614583  .00000144  00000-0  38178-4 0   193
2 28931 097.9782 287.3193 0000963 065.2607 121.7804 14.61243779456567
Epoch (UTC): 19 August 2014 11:25:39
Eccentricity: 0.0000963
inclination: 97.9782°
perigee height: 688 km
apogee height: 690 km
right ascension of ascending node: 287.3193°
argument of perigee: 65.2607°
revolutions per day: 14.61243779
mean anomaly at epoch: 121.7804°
orbit number at epoch: 45656

The dashed part of the orbit path shows where the satellite is in the earth's shadow,  

DLR